Tracking 19562 objects as of 25-Mar-2019
HD Live streaming from Space Station
objects crossing your sky now

SL-16 R/B

Track SL-16 R/B now!
10-day predictions
SL-16 R/B is classified as:


NORAD ID: 22220
Int'l Code: 1992-076B
Perigee: 835.5 km
Apogee: 853.7 km
Inclination: 71.0 °
Period: 101.7 minutes
Semi major axis: 7215 km
RCS: 15.162 m2 (large)
Launch date: November 17, 1992
Source: Commonwealth of Independent States (former USSR) (CIS)
Launch site: TYURATAM MISSILE AND SPACE COMPLEX (TTMTR)

Note: This is a ROCKET BODY
aabbcc
Your satellite tracking list
Your tracking list is empty




NASA's NSSDC Master Catalog

Two Line Element Set (TLE):
1 22220U 92076B   19083.23666171 -.00000286  00000-0 -11961-3 0  9994
2 22220  70.9984 141.4205 0012618 359.3002  56.9009 14.16440547362112
Source of the keplerian elements: AFSPC